Theta_e
316 318 318 323 326 327 327 327 326 328 329 328 327 326 326 329 334 344 333 333 338 341 338 334 325 331 332 333 334 335 333 334 335 334 334 335 333 333 331 330 330 330 332 332 332 332 333 332 330
316 318 320 326 326 327 322 324 327 328 326 327 326 325 326 333 334 334 333 335 340 341 339 334 325 327 330 332 336 335 333 333 334 335 333 334 334 333 331 330 329 329 330 330 330 331 331 331 330
314 317 325 324 325 327 323 321 325 325 325 327 327 327 326 333 334 335 334 337 340 340 339 333 325 325 331 331 335 334 332 332 332 334 332 332 331 329 327 329 328 328 329 329 329 330 330 330 328
319 319 322 324 326 322 320 321 322 324 323 322 325 326 329 333 335 336 333 339 339 341 339 331 324 324 331 331 334 334 333 332 331 333 331 332 330 328 329 328 329 329 329 330 330 330 329 327 327
318 322 322 323 325 319 319 321 322 322 321 322 323 323 331 336 338 334 334 338 341 341 338 330 324 324 330 330 330 332 333 332 331 330 329 329 328 328 327 326 326 328 329 329 329 328 329 325 326
319 321 323 325 324 319 319 320 321 321 320 320 322 323 334 335 337 334 335 337 341 340 338 330 326 324 328 330 332 331 334 332 331 329 326 325 328 329 326 325 326 327 326 327 327 329 326 325 324
322 322 323 324 321 320 319 320 321 320 320 320 320 322 332 334 336 335 336 338 340 338 337 333 328 326 327 329 331 330 331 333 331 330 326 325 323 327 326 325 325 326 325 324 323 323 323 322 321
320 323 323 324 321 321 319 319 319 319 319 320 321 321 330 334 336 336 337 338 340 338 336 335 332 328 328 326 330 330 329 332 332 330 329 325 323 325 324 324 324 325 324 323 322 322 321 320 319
318 322 324 324 321 320 318 319 318 317 318 319 321 323 330 336 336 337 338 338 339 337 336 336 334 333 332 327 327 329 327 330 333 331 329 327 325 324 326 324 323 323 323 322 322 321 320 320 319
319 322 324 322 321 319 318 318 317 316 317 318 320 325 335 336 337 337 338 337 338 337 336 336 334 333 333 332 326 326 326 329 332 331 329 327 327 326 325 323 322 321 322 322 321 320 321 322 320
318 322 321 319 317 319 318 319 317 316 316 316 318 325 334 336 337 337 338 337 337 336 336 335 335 335 333 332 327 330 326 330 331 330 330 328 327 326 325 321 320 320 320 319 320 320 321 321 321
318 317 315 317 315 318 319 318 318 317 317 316 317 323 332 333 336 337 337 336 335 335 335 335 335 335 333 333 331 332 328 332 330 330 329 328 328 326 325 322 319 319 320 319 319 320 321 321 321
316 316 315 315 315 316 317 318 317 317 314 314 316 323 329 332 333 336 337 337 336 335 334 334 334 334 334 332 332 332 331 331 332 330 330 329 328 326 325 324 322 322 320 319 319 320 318 319 320
315 314 314 314 314 314 317 315 315 315 315 313 314 318 323 327 332 332 333 334 337 336 334 334 334 334 334 333 332 332 331 331 331 331 330 329 328 327 325 323 323 322 321 318 318 319 319 319 318
314 314 313 313 313 313 313 314 312 313 312 314 313 313 315 320 328 330 332 333 334 337 335 334 334 334 333 333 333 332 332 331 331 330 330 329 328 327 325 323 323 323 321 317 318 319 319 319 318
313 314 314 314 313 313 314 316 315 312 310 311 310 309 310 313 319 327 329 332 333 335 336 334 333 333 333 333 333 332 332 332 331 330 329 329 327 327 325 323 322 322 321 317 316 317 317 317 317
313 312 313 312 313 313 313 315 314 311 310 310 309 310 309 310 314 319 325 330 332 333 335 335 333 333 333 333 333 332 332 332 331 330 329 328 327 326 326 323 322 322 320 317 314 314 315 316 317
313 312 313 313 311 312 313 312 313 312 311 310 310 311 310 309 310 316 320 326 330 332 334 335 335 333 332 332 332 332 331 331 330 329 329 328 327 326 325 323 322 321 320 317 315 315 316 317 317
311 311 312 312 311 313 312 312 312 311 311 310 310 310 310 310 311 313 316 321 326 329 332 334 335 335 332 332 331 332 332 331 330 329 329 328 328 326 325 324 323 321 320 317 315 315 315 315 316
312 313 312 311 311 312 312 312 311 311 311 310 310 310 310 311 311 312 313 314 318 325 329 332 334 336 334 332 331 331 331 331 330 330 329 329 328 327 326 324 323 322 321 318 316 315 315 315 314
311 311 311 312 311 311 310 310 310 310 311 310 311 310 310 310 310 310 312 313 312 313 318 327 330 332 335 334 332 331 331 331 330 330 329 329 329 328 327 326 324 323 322 320 317 316 315 314 313
311 310 310 311 310 309 310 308 310 311 310 310 310 309 309 310 313 309 311 312 311 311 312 312 317 327 330 335 332 331 331 331 330 329 329 329 329 329 328 327 326 324 323 322 320 318 316 313 312
311 309 310 311 311 310 310 308 306 311 311 310 308 308 308 311 311 311 312 312 312 312 311 310 310 311 319 329 333 331 330 329 328 328 329 329 328 329 328 327 326 325 325 324 322 320 317 316 312
310 310 310 310 309 310 309 308 309 309 309 310 311 310 311 311 310 309 311 311 313 315 316 314 311 309 311 317 332 332 331 329 329 329 329 328 328 327 327 327 327 326 326 325 325 323 320 318 315
311 310 311 310 311 310 308 309 308 310 309 309 310 310 308 310 309 309 310 311 312 314 318 315 309 308 309 313 319 331 330 327 327 328 330 329 327 327 327 326 325 326 326 325 324 322 322 319 315
310 309 313 312 315 311 307 307 308 309 309 306 308 308 308 309 309 309 310 310 310 312 316 316 314 314 316 318 321 323 329 328 325 328 329 329 328 326 326 325 325 326 324 324 323 322 320 319 317
310 309 310 309 303 310 309 308 309 309 308 309 305 310 309 309 308 308 309 309 309 309 311 316 315 316 318 320 323 324 325 325 327 327 327 328 328 327 327 326 326 326 325 323 322 321 319 318 317
309 308 308 309 309 311 307 309 308 311 308 307 308 307 309 309 308 307 307 307 307 307 308 311 314 314 316 318 319 321 321 321 324 325 325 325 325 325 325 324 324 323 322 320 318 317 316 315 314
308 309 309 308 311 312 310 307 309 310 310 307 306 308 309 308 307 306 306 306 305 306 307 308 309 311 311 313 314 316 316 317 318 319 319 319 319 319 318 318 317 317 317 316 315 314 313 312 311
307 308 308 309 309 307 309 309 308 307 309 311 308 308 307 307 306 305 304 304 304 304 305 305 305 305 306 307 307 306 306 307 308 308 308 308 309 308 308 308 308 307 307 306 306 306 306 306 306
Wind_Speed
7 11 11 7 2 3 4 4 7 8 6 3 10 7 9 11 7 6 18 22 23 21 18 14 15 16 14 14 13 15 15 15 16 17 17 17 18 19 19 18 18 18 17 16 17 17 17 21 23
3 8 5 3 2 4 3 8 6 4 8 9 7 2 5 7 7 10 10 22 21 18 17 14 14 17 16 15 13 15 14 16 16 17 16 17 18 17 18 18 18 18 18 17 16 15 15 18 19
3 5 2 3 5 4 5 9 9 10 8 6 5 3 4 4 11 17 18 23 21 20 16 15 14 17 17 16 16 15 14 15 16 16 15 15 17 16 16 19 18 18 18 18 17 17 17 17 20
2 4 3 4 8 5 8 7 13 8 5 7 4 9 6 8 10 16 25 23 20 22 16 15 14 17 17 16 16 14 14 15 15 15 14 15 16 15 16 16 18 17 17 17 18 18 18 19 22
2 3 3 6 7 6 4 9 11 8 7 5 4 6 6 6 12 24 25 23 22 19 16 16 14 15 16 16 15 14 14 14 13 15 15 15 15 15 15 12 14 14 15 15 16 16 18 21 19
2 2 3 6 4 9 3 7 8 6 6 6 1 8 5 13 16 22 23 21 20 19 13 16 14 15 15 15 16 14 14 13 12 13 13 14 13 14 14 14 15 14 13 14 14 16 17 17 17
2 2 7 9 7 6 6 3 4 5 4 6 5 3 5 11 19 22 21 20 19 19 15 15 15 15 15 15 14 13 14 13 12 12 12 11 11 12 13 13 13 12 11 10 10 13 14 14 13
2 1 6 4 8 5 6 6 3 3 5 2 4 1 6 15 20 21 21 19 21 21 16 13 14 15 15 16 15 13 14 13 13 12 11 10 11 11 10 13 12 11 10 9 7 11 11 11 11
3 1 4 2 5 6 8 4 1 2 5 2 3 5 13 24 22 21 21 19 20 20 18 17 12 14 12 14 16 14 14 15 14 12 10 9 11 11 10 12 11 11 10 8 5 9 10 8 8
2 2 5 7 2 8 10 8 8 3 5 4 6 3 22 22 21 21 20 18 19 20 20 16 17 16 14 12 15 14 15 14 14 13 12 9 8 8 9 11 10 9 9 8 6 11 10 7 7
4 2 1 6 6 10 9 4 8 5 6 8 12 10 14 19 18 15 15 19 20 20 19 19 19 18 16 16 15 13 15 13 13 13 13 10 9 11 8 10 10 10 8 5 8 11 5 3 4
2 0 6 4 5 2 9 6 4 5 3 5 7 17 14 9 15 16 17 19 18 22 23 22 22 18 18 16 15 16 15 16 14 14 15 13 12 10 10 7 9 8 9 6 7 6 6 7 7
3 5 4 7 2 5 5 5 1 7 8 7 10 15 11 10 15 23 24 25 24 22 25 25 25 23 21 17 17 16 15 18 14 16 17 14 12 12 12 8 10 8 9 8 9 8 7 6 6
3 5 6 5 5 3 1 3 2 7 8 10 8 8 11 11 20 18 23 24 29 26 23 25 27 27 25 21 18 18 16 17 17 16 17 17 15 14 15 13 11 13 11 9 9 8 8 6 7
1 5 3 3 5 2 3 3 7 3 5 7 9 9 8 11 21 23 22 23 24 29 27 26 27 27 28 28 22 19 20 17 18 18 18 19 17 16 16 15 15 15 13 12 12 11 9 9 8
4 1 4 5 6 2 2 5 11 11 9 8 8 9 9 9 15 21 22 24 23 23 29 27 25 28 29 29 28 24 20 20 18 18 17 18 21 17 17 16 17 16 15 15 15 14 13 11 10
4 4 7 2 7 3 5 5 3 6 6 7 8 8 9 9 12 17 19 22 24 25 26 27 26 26 28 29 28 29 26 23 22 21 19 19 21 20 19 18 17 17 17 16 15 15 14 13 12
6 4 2 6 3 1 3 10 2 5 6 8 8 7 7 9 10 19 19 20 21 24 26 27 29 27 25 25 27 26 28 28 25 21 20 19 20 22 21 20 19 19 19 17 17 17 16 14 13
1 8 6 5 2 1 6 9 10 8 7 9 8 8 8 9 12 20 23 22 21 23 26 27 30 29 26 28 28 27 29 29 29 27 25 22 21 22 24 23 21 22 21 20 19 18 17 17 13
4 4 2 4 5 3 6 8 10 9 7 9 9 9 10 7 9 12 17 19 22 22 24 25 27 30 33 31 29 27 27 27 29 29 27 26 24 23 23 25 23 24 23 22 21 22 22 19 18
5 6 4 5 4 2 2 6 9 10 13 10 8 9 8 10 9 9 15 17 16 19 22 25 27 28 31 32 30 25 23 24 27 30 32 32 30 26 25 24 25 26 26 26 27 26 24 23 19
6 5 7 8 5 2 3 4 4 5 7 7 8 8 8 7 3 6 5 6 8 10 12 21 24 26 28 31 33 32 26 23 23 29 31 31 31 34 30 29 27 28 28 27 27 25 28 26 24
2 7 7 5 3 3 3 1 6 4 4 7 11 10 8 4 7 6 6 2 2 8 14 16 20 24 27 23 35 35 29 26 24 25 28 28 29 30 32 33 30 30 30 28 29 27 27 28 25
8 8 8 4 3 2 7 6 5 6 8 4 1 5 7 7 7 7 4 0 1 4 8 12 17 22 23 24 25 31 27 25 24 21 25 26 26 25 26 29 32 32 31 30 28 26 26 29 29
5 6 2 1 0 5 4 4 10 4 4 5 6 7 8 7 7 5 5 4 2 2 3 3 7 12 16 19 19 21 26 24 26 26 22 22 22 23 22 22 25 28 28 27 26 25 26 27 27
9 8 6 7 5 3 5 7 7 12 2 2 3 7 8 8 6 5 5 4 4 4 4 3 2 4 6 9 11 16 17 21 22 23 20 19 20 20 19 20 21 22 23 23 23 24 25 24 23
5 5 1 7 3 4 5 7 8 6 6 6 7 4 6 7 7 6 5 6 7 5 6 5 3 5 6 6 8 9 14 10 14 14 15 12 14 13 12 13 14 16 18 20 20 21 20 20 20
3 4 3 1 5 4 6 5 7 3 9 8 8 8 7 7 7 6 6 6 6 6 6 6 6 5 4 7 7 9 11 11 9 10 11 10 10 9 10 10 11 11 12 12 12 14 15 16 18
2 4 5 5 4 5 1 6 4 5 7 11 9 9 9 8 7 6 7 7 6 6 7 9 9 9 10 9 9 9 7 6 6 7 6 5 5 5 5 6 5 6 7 8 9 10 11 13 15
9 7 8 5 4 2 3 9 5 7 4 3 10 10 9 9 8 7 9 8 8 8 9 10 10 12 11 11 13 15 13 11 10 9 8 6 5 4 3 2 2 1 1 3 5 6 7 9 12
Wind_Direction
345 334 315 292 297 219 130 93 90 76 87 26 69 30 67 54 24 112 152 131 131 135 140 135 132 134 124 119 115 109 94 93 95 90 88 87 90 85 82 84 82 84 87 89 93 90 87 89 90
320 319 276 273 230 228 124 113 132 144 97 98 84 135 81 80 76 127 103 131 135 138 132 137 135 137 131 123 122 114 98 95 100 96 93 85 88 86 85 86 86 83 83 86 90 92 95 90 91
290 288 275 211 245 295 126 148 118 87 101 128 115 17 33 85 110 146 147 140 136 137 145 139 139 139 137 132 124 120 108 101 103 99 97 95 91 89 78 88 85 85 86 86 86 86 90 92 97
278 229 284 267 249 67 85 143 110 112 27 352 121 93 74 1 127 135 142 142 137 141 153 142 141 142 143 139 133 131 120 109 111 107 100 100 97 100 94 94 90 88 90 88 89 90 90 97 101
234 258 239 231 267 83 10 93 117 152 149 168 291 131 98 76 107 135 146 144 139 141 151 145 144 144 146 141 137 137 134 123 116 115 111 113 111 108 102 91 97 95 90 90 90 93 91 101 100
269 230 218 232 217 94 87 92 135 180 154 82 42 117 90 129 134 145 148 146 150 142 149 148 148 146 147 147 143 145 140 137 122 112 113 120 118 111 105 108 93 93 91 87 91 89 95 100 99
238 205 242 229 120 113 119 150 175 149 146 166 356 93 118 155 143 150 151 150 152 145 155 156 153 152 152 153 152 149 149 152 135 122 110 113 125 119 117 107 103 102 103 102 101 99 101 101 95
290 229 266 286 128 129 131 150 357 176 96 47 23 45 162 148 147 152 153 151 147 148 160 162 161 159 158 158 159 156 156 154 153 145 131 114 117 130 124 111 107 106 110 105 116 116 110 99 86
284 330 228 232 143 120 143 126 297 9 114 69 85 57 115 138 151 156 154 154 141 150 164 169 171 160 163 164 164 164 164 165 168 160 144 117 113 120 119 122 118 114 118 122 126 126 113 89 78
231 203 235 182 182 143 162 163 149 139 147 143 95 50 122 142 160 163 164 161 152 157 174 176 176 171 171 172 171 170 167 169 174 171 150 126 133 144 150 139 129 131 130 133 141 127 103 77 58
223 245 295 49 48 130 156 185 144 207 177 183 171 161 145 154 167 168 167 174 190 187 182 186 180 180 180 182 172 176 169 167 176 187 165 164 169 171 184 166 157 158 158 142 137 133 93 119 123
251 329 348 67 10 37 149 141 160 229 108 42 99 155 155 162 163 171 183 189 191 195 194 192 190 187 187 191 183 185 177 180 190 190 185 184 190 180 190 181 171 162 139 181 159 151 189 165 163
255 125 42 72 82 47 85 142 224 202 130 81 85 145 159 170 188 186 191 193 192 194 199 201 198 196 192 193 190 192 192 188 198 195 198 190 196 179 189 203 170 187 173 200 167 202 177 175 165
202 118 122 140 102 57 173 102 30 229 161 139 133 172 168 182 192 203 192 196 183 189 200 205 205 203 199 197 198 201 198 203 194 200 204 195 200 198 193 197 182 194 201 195 187 198 190 192 191
149 103 87 181 164 100 296 151 228 160 140 181 181 198 194 194 193 201 199 201 197 192 194 202 206 209 208 207 203 205 202 207 203 202 205 203 198 207 198 204 195 201 206 200 192 198 200 206 211
157 239 163 158 129 148 143 254 223 186 162 201 212 199 205 211 213 203 205 202 200 193 194 197 203 207 212 213 214 210 209 209 208 207 212 215 200 205 202 208 203 206 209 207 203 207 207 215 224
219 191 198 158 201 114 188 250 182 113 155 221 244 237 196 193 212 226 213 204 199 197 196 198 202 205 209 214 213 216 215 214 212 211 210 218 214 203 210 210 209 212 217 212 211 215 219 220 226
158 225 202 153 213 29 222 268 281 189 198 229 244 236 223 192 208 214 215 212 200 202 201 200 203 204 208 209 214 217 220 220 215 213 215 220 220 214 211 212 215 216 220 216 215 220 220 225 232
113 161 170 125 40 165 238 265 256 243 209 221 235 244 240 212 211 206 206 207 208 207 201 199 199 208 202 209 209 210 213 217 221 223 225 218 218 221 213 215 215 222 225 222 221 222 227 223 219
139 143 169 68 84 105 306 266 260 256 247 223 212 231 230 236 194 193 185 192 206 210 211 208 206 205 206 204 214 215 217 219 223 225 218 217 217 217 221 219 218 223 228 222 224 225 224 228 224
189 173 151 116 162 193 308 274 239 246 231 249 230 224 241 209 207 172 169 192 204 213 218 216 217 214 213 210 211 217 220 223 227 226 230 226 223 217 219 229 219 230 235 231 228 229 231 232 232
193 140 112 135 145 193 189 271 312 251 218 221 248 242 236 249 152 113 109 150 195 216 227 232 226 221 221 214 205 205 209 213 219 226 231 232 232 230 227 233 231 233 239 241 244 246 241 237 238
206 128 130 123 118 78 176 24 261 8 234 236 238 223 224 144 84 96 78 76 265 247 240 235 229 228 225 224 211 207 210 228 232 233 231 232 237 237 231 231 233 237 241 247 251 252 250 249 242
137 96 86 109 140 264 190 170 244 201 210 219 102 127 131 116 98 88 84 116 236 270 268 255 240 237 227 225 216 211 212 226 227 227 226 226 233 237 238 239 239 244 249 253 255 257 258 257 255
159 149 115 120 121 221 325 173 234 266 248 210 196 175 153 138 138 151 147 130 77 2 321 271 246 235 229 228 225 217 228 231 235 230 220 219 224 228 238 241 243 244 249 252 256 257 261 260 256
201 179 159 177 183 204 342 233 255 220 109 70 86 171 143 144 127 143 133 122 98 55 40 40 123 151 195 212 219 218 219 226 236 235 235 234 233 239 241 244 246 249 250 255 257 259 261 265 263
215 239 106 101 2 72 209 274 300 195 235 216 207 174 167 164 159 161 148 114 97 83 59 63 99 145 147 154 187 203 212 207 200 214 219 222 229 239 243 247 251 254 256 255 261 259 265 266 270
129 157 65 309 135 218 247 235 228 162 238 229 216 201 185 154 155 150 142 121 106 97 89 95 106 100 125 167 178 195 208 221 205 197 202 207 209 212 218 225 231 233 241 245 252 261 269 274 277
171 200 209 155 176 178 246 250 193 191 220 208 199 173 167 161 164 157 126 116 116 115 110 102 104 113 105 111 117 135 156 173 164 161 164 165 175 181 188 198 212 236 250 258 260 264 271 275 279
223 207 179 151 252 264 136 260 151 129 114 146 173 176 166 158 159 142 140 145 134 120 113 108 110 110 114 118 117 109 111 116 115 111 113 119 116 116 112 101 92 39 337 320 313 296 281 282 283